Flag for U.S.A. Weather past 2 weeks in San Diego, California, U.S.A.

Now
66 °F

Overcast.


Feels Like: 66 °F
Forecast: 60 / 69 °F
Wind: 9 mph from Northwest

Location: San Diego - North Island

Current Time: Jan 28, 2015 at 4:59:12 PM

Latest Report: Jan 28, 2015 at 3:52 PM


Visibility: 10 mi

Pressure: 30.04 "Hg

Humidity: 63%

Dew point: 53 °F

Location of San DiegoLocation

Historic Weather in San Diego — Graph

°F

San Diego temperature yesterday

Maximum temperature yesterday: 70 °F (at 11:52 AM)
Minimum temperature yesterday: 53 °F (at 4:52 AM)
Average temperature yesterday: 61 °F

Past Weeks' High & Low Weather Summary

 TemperatureHumidityPressure
High76 °F (Jan 25, 12:52 PM)100% (Jan 19, 4:00 AM)30.24 "Hg (Jan 19, 4:00 AM)
Low45 °F (Jan 24, 5:52 AM)12% (Jan 23, 11:52 AM)29.93 "Hg (Jan 20, 3:52 PM)
Average59 °F65%30.09 "Hg
* Reported Jan 13 3:52 PM — Jan 28 3:52 PM, San Diego, Weather by CustomWeather, © 2014

Note: Actual official high and low records may vary slightly from our data, if they occured in-between our weather recording intervals... More about our weather records

Advertising

San Diego weather history for previous 24 hours

 ConditionsComfort  
Time TempWeatherWind HumidityBarometerVisibility
3:52 PM
Jan 28
66 °FOvercast.9 mph63%30.04 "Hg10 mi
2:52 PM66 °FOvercast.12 mph68%30.05 "Hg10 mi
1:52 PM68 °FOvercast.10 mph47%30.04 "Hg10 mi
12:52 PM69 °FPartly sunny.12 mph49%30.04 "Hg10 mi
11:52 AM73 °FPartly sunny.5 mph38%30.07 "Hg10 mi
10:52 AM67 °FPartly sunny.3 mph55%30.10 "Hg10 mi
9:52 AM63 °FPartly sunny.No wind63%30.11 "Hg10 mi
8:52 AM60 °FPartly sunny.5 mph72%30.11 "Hg10 mi
7:52 AM55 °FPartly sunny.No wind83%30.11 "Hg10 mi
6:52 AM53 °FPartly sunny.No wind83%30.12 "Hg10 mi
5:52 AM54 °FPassing clouds.5 mph83%30.11 "Hg10 mi
4:52 AM55 °FPassing clouds.3 mph83%30.12 "Hg10 mi
3:52 AM54 °FPassing clouds.7 mph86%30.10 "Hg10 mi
2:52 AM55 °FPassing clouds.5 mph90%30.11 "Hg10 mi
1:52 AM54 °FPassing clouds.3 mph90%30.14 "Hg10 mi
12:52 AM56 °FPassing clouds.3 mph90%30.16 "Hg10 mi
11:52 PM
Jan 27
55 °FPassing clouds.No wind90%30.15 "Hg10 mi
10:52 PM58 °FPassing clouds.3 mph87%30.15 "Hg10 mi
9:52 PM58 °FPassing clouds.5 mph87%30.16 "Hg10 mi
8:52 PM60 °FPassing clouds.6 mph80%30.16 "Hg10 mi
7:52 PM61 °FPassing clouds.6 mph78%30.16 "Hg10 mi
6:52 PM62 °FPassing clouds.7 mph73%30.15 "Hg10 mi
5:52 PM63 °FPassing clouds.9 mph73%30.14 "Hg10 mi
4:52 PM64 °FPartly sunny.12 mph70%30.13 "Hg10 mi
Weather by CustomWeather, © 2014

See weather overviewHow to use our weather pages